Theta_e
284 287 287 290 290 292 293 294 292 295 297 300 301 307 309 313 317 319 319 319 319 319 318 318 318 318 319 318 318 318 318 316 314 312 310 309 308 307 306 305 305 304 303 302
280 285 286 287 290 294 296 297 296 296 296 300 304 306 309 312 313 316 318 319 319 319 319 319 318 318 319 318 318 317 317 316 314 311 309 308 306 305 303 303 303 301 299 300
276 284 283 279 288 291 292 295 293 289 293 301 302 306 309 310 312 313 316 318 320 320 320 320 318 319 316 315 315 316 315 313 310 308 306 303 302 302 301 300 298 297 297 297
277 279 270 283 290 295 293 299 300 300 301 302 303 307 307 310 310 312 314 314 319 321 320 316 315 314 315 315 314 313 307 306 304 303 302 301 299 298 298 298 296 295 295 296
271 274 281 284 290 290 290 290 300 298 301 302 307 308 305 309 310 309 310 313 317 317 313 313 313 313 311 306 305 304 302 302 302 301 301 297 296 296 296 294 293 293 294 294
280 274 272 284 291 295 296 286 300 300 300 303 306 298 301 306 307 307 309 310 310 312 312 310 309 307 304 302 302 301 301 301 300 299 298 295 295 294 292 292 292 293 293 293
282 278 281 290 293 296 282 284 296 301 302 305 302 303 302 302 301 302 302 304 305 305 303 302 302 302 300 300 299 301 302 300 299 297 295 294 293 292 291 291 291 290 291 293
279 278 278 292 293 287 292 297 297 300 303 301 303 303 302 302 301 300 300 301 302 301 300 302 302 301 299 298 299 299 299 297 295 294 295 294 291 291 291 290 289 290 293 294
283 283 292 293 294 298 298 296 296 298 303 300 299 300 302 300 300 299 299 300 301 299 298 299 299 298 295 295 296 296 294 292 292 292 292 291 290 289 289 289 292 292 292 292
287 290 291 296 296 296 297 297 301 306 303 302 299 299 299 300 301 299 299 299 300 299 297 296 298 297 297 297 297 295 292 291 291 290 291 290 290 290 291 292 292 292 293 292
286 292 291 294 294 295 297 301 301 301 300 299 298 297 297 297 297 298 298 298 297 296 295 295 296 296 296 296 295 292 291 291 290 290 290 291 291 291 292 295 294 293 293 293
284 290 289 290 292 302 300 300 301 299 298 299 298 297 297 296 296 295 295 296 295 295 294 294 294 295 295 295 293 291 290 290 290 288 289 289 289 291 293 293 293 292 292 292
292 293 291 293 297 298 296 297 298 298 297 296 297 297 297 295 296 297 296 295 294 293 293 292 293 293 294 294 293 291 288 288 287 290 291 290 291 291 290 292 293 293 292 292
295 295 288 292 292 297 297 297 298 297 297 296 296 296 296 295 295 295 294 294 293 293 293 293 293 292 292 292 291 290 289 293 291 292 291 290 289 288 289 288 287 287 290 290
293 293 293 295 296 296 296 296 294 294 295 295 296 295 295 294 294 294 294 294 293 292 292 293 292 290 291 292 290 291 292 291 292 292 291 291 290 289 288 287 286 286 287 288
294 293 293 292 293 294 294 293 292 292 293 293 294 294 295 294 294 293 294 293 290 289 290 290 290 290 291 290 288 291 292 292 292 291 291 289 289 288 287 286 286 286 286 286
290 290 292 291 292 293 293 294 293 292 293 294 295 297 296 294 292 290 290 291 292 290 289 289 288 290 291 289 287 287 288 288 287 287 290 289 289 288 288 287 286 286 286 287
293 293 293 293 293 293 294 295 295 295 295 297 297 296 295 293 290 289 288 289 290 290 288 288 288 288 290 290 288 286 286 286 286 286 287 289 288 289 288 287 287 286 286 286
295 294 295 295 295 294 294 295 295 296 296 297 295 293 294 293 292 291 289 287 287 287 287 287 291 288 287 290 289 286 287 286 286 285 285 286 288 288 287 286 286 286 286 285
295 297 297 298 299 298 298 298 297 297 297 296 295 293 292 292 292 290 289 286 286 287 289 288 287 286 286 288 288 287 287 287 285 285 286 285 286 286 287 286 286 286 285 285
303 299 298 299 299 301 301 301 300 299 299 296 293 292 290 291 291 289 286 285 287 288 289 291 287 286 285 285 286 287 287 286 285 285 283 284 284 285 285 286 286 285 285 285
305 305 303 302 301 301 302 300 299 298 296 296 296 295 293 292 291 290 289 287 289 286 288 289 287 285 284 284 287 287 287 286 285 283 284 284 283 283 284 285 284 285 285 284
304 305 305 302 302 302 301 299 296 295 295 294 290 288 287 287 289 285 285 290 289 287 288 289 287 284 284 288 288 287 286 285 283 282 284 284 283 282 283 283 284 284 284 284
305 305 304 304 302 299 298 299 296 295 296 296 293 290 290 288 290 292 291 289 286 286 289 288 287 285 286 288 287 286 285 284 282 283 284 283 282 281 282 282 282 283 283 283
301 302 303 302 301 300 300 299 298 297 296 295 296 296 296 293 290 291 290 291 287 290 291 287 286 286 288 287 287 285 284 283 282 282 283 282 281 280 281 281 281 282 282 283
299 299 302 303 303 301 300 296 296 296 297 295 296 297 294 293 292 292 292 290 292 289 290 290 289 289 287 286 286 285 284 282 283 282 282 281 280 280 280 280 281 281 282 283
297 296 299 300 300 300 299 298 298 296 295 294 295 295 294 293 292 291 289 291 290 290 290 289 288 287 287 286 285 285 284 282 283 282 282 281 280 279 279 279 280 281 282 283
Wind_Speed
13 14 18 22 21 15 13 9 6 7 7 6 4 10 13 11 12 11 13 12 10 6 10 12 13 15 16 15 15 15 13 12 11 9 8 8 6 6 6 5 5 5 4 5
20 18 18 17 19 21 14 10 8 8 7 8 12 7 10 14 15 16 16 19 22 24 16 14 12 14 15 15 14 12 11 10 10 7 7 7 7 5 4 5 5 5 5 4
15 8 16 12 8 5 5 7 2 3 6 9 8 7 13 15 17 19 18 20 26 23 20 13 14 14 12 11 10 12 12 10 8 6 7 6 6 7 6 5 5 5 4 4
11 5 5 6 19 8 8 10 9 7 10 11 11 10 4 13 10 18 20 18 23 18 13 6 8 11 13 9 8 12 13 10 10 10 9 7 6 6 6 5 5 3 4 5
3 4 10 16 7 8 5 7 11 15 14 16 15 3 14 15 13 7 2 8 8 9 12 12 14 13 17 18 18 15 15 13 12 8 6 6 6 6 5 5 3 3 3 5
2 4 4 2 13 16 15 6 8 16 17 14 10 8 7 13 18 18 18 17 19 18 18 18 13 17 20 15 15 14 8 7 8 6 6 6 5 4 1 2 0 2 4 5
2 3 5 10 20 16 4 6 17 11 15 9 11 9 12 16 23 21 18 21 21 21 19 18 18 19 19 15 15 9 5 10 8 5 5 4 2 2 2 3 4 4 4 5
3 4 4 16 12 7 7 9 13 12 4 15 17 15 15 18 20 21 22 21 19 20 17 14 16 17 15 16 7 10 6 6 7 6 6 5 7 5 4 5 5 5 5 6
3 1 9 13 10 6 8 10 10 14 5 22 18 21 14 17 19 19 21 17 14 16 19 12 11 12 14 8 7 8 7 7 6 6 6 6 4 5 4 4 3 4 5 5
8 2 16 7 12 11 13 12 16 9 15 16 17 14 14 16 15 12 17 15 9 6 18 13 9 14 14 10 7 9 8 8 6 6 6 6 4 3 3 4 5 5 5 6
6 7 15 10 20 21 14 8 14 14 16 16 16 14 16 16 13 11 11 8 9 11 11 17 12 10 11 6 8 9 7 6 6 4 5 5 5 4 4 5 4 5 6 7
3 10 6 12 24 19 20 19 16 18 15 17 15 16 16 13 13 11 11 11 13 14 16 14 13 12 8 6 7 7 7 4 4 3 4 4 4 6 6 9 12 12 13 10
4 10 12 15 18 21 20 15 11 14 14 16 15 14 11 12 13 15 16 16 12 11 11 9 10 9 5 6 7 7 4 4 4 4 6 7 7 7 9 7 9 11 12 12
12 6 8 18 12 13 12 14 18 16 15 14 14 12 14 14 15 14 14 11 10 10 11 9 9 7 5 6 6 6 5 9 5 5 5 7 9 9 7 8 10 10 9 12
7 9 3 10 11 9 10 12 15 13 12 12 10 11 12 13 13 11 9 10 10 10 9 8 6 7 6 7 8 8 5 4 4 4 4 6 6 6 6 7 8 9 10 9
5 4 7 11 11 12 9 9 10 8 7 6 7 8 11 11 10 9 8 8 9 6 5 8 9 5 6 4 4 4 4 7 5 4 4 6 6 7 7 7 8 8 8 9
5 3 5 4 4 6 7 7 7 6 6 8 8 8 10 11 11 10 9 8 7 6 6 6 4 3 2 4 4 3 3 4 6 4 6 6 7 7 7 8 8 8 9 8
4 5 5 4 1 3 5 6 7 8 9 8 9 10 10 8 6 5 6 6 7 6 4 3 4 4 4 5 5 4 4 4 4 5 5 7 8 7 7 8 9 9 9 9
3 5 5 6 5 4 4 6 6 5 6 7 9 8 6 6 6 5 5 6 5 4 5 4 7 7 7 7 7 4 4 5 5 5 5 7 8 9 8 8 9 9 10 9
3 3 4 4 3 2 5 4 6 6 6 7 7 7 7 5 4 3 3 4 0 3 2 5 5 5 6 7 7 4 5 5 5 5 6 7 8 9 9 10 10 10 9 9
6 3 6 4 2 3 4 5 6 6 6 6 7 6 5 3 4 4 6 4 5 4 3 4 4 4 4 5 5 4 5 5 5 6 6 7 9 9 10 10 10 10 10 9
6 7 6 4 5 5 6 6 6 6 5 5 5 5 5 4 2 3 1 1 4 6 4 4 4 5 5 6 4 4 5 5 5 5 7 8 8 9 10 10 11 10 10 9
5 4 3 5 5 6 6 5 6 6 5 4 4 2 2 2 2 2 4 5 2 5 3 4 7 5 7 5 4 5 5 6 5 5 7 7 8 9 9 11 11 11 11 10
5 5 2 2 4 3 5 5 5 5 6 5 5 5 3 1 2 3 4 6 6 5 3 5 7 7 6 4 4 5 5 5 5 6 8 9 8 9 9 10 11 11 11 12
4 6 8 7 3 4 4 4 5 5 5 5 5 5 6 4 2 3 1 3 6 6 4 6 7 6 5 5 4 5 5 5 5 5 8 8 9 10 10 10 11 12 11 11
4 4 4 5 3 3 3 1 3 3 4 3 4 4 2 3 2 1 2 5 5 5 4 4 4 4 4 5 5 5 6 6 6 6 8 8 9 9 10 11 12 11 11 11
5 4 3 4 5 5 4 3 4 3 4 3 3 1 3 2 3 2 4 5 3 3 3 3 3 3 3 4 5 5 6 5 7 7 8 8 9 9 10 11 12 11 11 11
Wind_Direction
273 282 290 283 299 312 297 283 223 253 229 276 204 182 171 150 142 142 152 161 192 167 207 182 184 174 173 172 174 171 171 158 160 154 149 137 151 143 137 119 111 105 81 46
296 284 264 284 301 304 291 260 236 250 236 3 316 190 145 161 167 174 178 178 187 189 194 186 187 186 174 178 178 165 154 145 144 139 129 137 140 127 114 106 96 77 52 41
277 354 335 284 227 342 345 37 339 0 317 342 321 323 162 163 178 183 193 191 198 196 188 188 168 178 171 158 138 145 135 130 125 102 91 85 77 72 58 53 71 57 33 14
270 304 251 290 323 320 18 46 13 349 338 325 297 292 305 341 239 224 210 203 194 187 177 141 94 88 81 72 99 122 93 89 80 87 85 79 70 70 63 64 52 19 351 351
205 158 286 290 33 341 358 296 15 343 332 326 324 154 41 24 30 37 328 225 113 114 107 100 97 102 92 84 75 40 57 72 73 73 77 77 68 72 75 70 45 10 324 303
173 227 246 23 329 313 302 233 11 338 334 316 324 75 50 48 63 53 65 84 97 99 96 86 76 85 81 75 83 85 87 86 85 84 70 82 97 93 116 111 196 294 302 294
324 215 267 357 333 314 175 301 316 325 324 2 60 73 90 73 67 63 58 71 83 84 83 84 84 80 76 82 82 71 89 71 57 36 62 67 65 47 13 349 335 314 307 301
337 321 345 338 332 10 315 307 316 312 0 73 66 67 67 67 69 64 56 52 65 76 72 74 83 81 90 87 76 90 68 66 55 44 38 37 33 9 357 10 339 313 314 311
312 298 263 274 287 338 314 314 296 299 133 103 91 83 54 72 62 69 69 56 39 80 81 50 64 108 91 80 78 74 75 70 56 27 16 8 360 341 338 313 292 300 290 287
317 220 324 327 341 323 325 314 320 115 92 75 89 88 93 71 71 67 71 74 87 82 93 111 65 46 78 86 85 78 57 38 13 6 329 323 314 300 281 285 308 304 301 304
281 319 320 351 326 317 288 254 85 57 76 76 82 84 89 94 90 88 89 92 94 87 82 78 71 56 53 46 51 51 43 20 3 349 342 332 337 322 313 306 295 308 303 298
321 3 335 314 316 52 49 62 79 82 67 66 69 77 75 80 92 94 84 66 70 63 64 59 56 55 47 46 54 55 48 23 10 347 344 326 313 321 305 297 303 299 291 283
331 49 16 329 37 49 66 71 63 74 79 76 60 60 86 95 79 76 82 77 77 73 69 56 53 61 38 46 50 57 70 4 0 3 349 344 343 329 321 316 280 290 299 304
34 39 358 16 31 29 50 61 65 65 66 69 74 65 62 70 76 75 74 79 71 65 63 57 67 64 29 38 54 49 29 15 356 346 348 349 346 340 330 329 330 329 328 323
51 84 56 20 44 39 43 61 65 61 62 60 57 65 71 79 80 82 92 86 80 70 64 67 78 53 29 41 43 36 25 5 345 327 324 331 327 331 326 324 318 315 319 315
81 41 72 54 23 32 37 49 66 55 50 52 68 78 87 91 85 82 90 96 85 73 59 51 41 43 39 44 9 358 356 324 319 323 327 341 332 331 330 324 321 317 313 314
83 67 46 34 352 347 13 30 50 58 52 56 57 62 75 74 62 50 44 44 60 57 53 50 11 1 40 24 9 336 329 323 321 320 345 338 334 329 326 320 317 316 311 306
81 104 155 158 171 358 25 46 45 50 62 56 53 59 70 73 93 74 56 61 57 52 19 351 21 26 12 358 5 353 339 331 342 339 331 335 336 327 323 322 322 318 315 313
102 96 101 115 127 107 89 88 71 73 67 64 66 77 97 110 108 90 65 66 73 55 333 357 21 22 7 343 2 346 356 355 346 336 333 331 336 332 329 327 322 321 318 315
146 130 122 120 114 109 101 90 95 72 54 74 68 66 73 75 98 96 61 61 301 241 282 12 14 1 345 337 351 354 2 359 344 337 341 339 332 332 327 324 323 322 321 318
9 101 165 151 145 100 100 131 103 86 78 82 91 95 112 111 83 71 47 42 317 322 331 327 338 326 325 330 351 353 1 348 342 334 330 331 330 330 327 326 324 324 322 318
16 11 87 123 84 64 74 81 92 95 105 102 97 90 83 65 17 2 296 206 303 336 336 305 316 313 315 345 5 9 359 343 334 331 338 335 333 329 327 325 325 323 322 318
61 349 7 108 116 116 110 111 123 134 128 118 116 122 132 215 207 69 358 300 328 338 318 313 316 355 348 23 33 16 356 340 331 329 332 332 329 325 322 323 322 321 321 320
111 341 39 120 115 124 156 181 165 171 168 176 179 191 193 88 353 266 279 308 354 356 9 334 351 19 42 43 31 12 346 336 326 334 335 336 329 325 323 323 322 321 319 320
63 35 26 13 323 254 233 209 194 205 199 205 222 218 226 234 168 243 336 26 71 70 26 3 32 49 41 29 16 4 336 331 327 335 337 334 330 327 324 323 321 319 318 319
29 50 77 287 314 338 356 138 182 230 206 210 233 224 218 224 241 209 45 90 83 68 37 22 41 59 42 27 10 357 339 332 334 329 336 333 327 325 323 324 322 321 320 320
358 11 358 355 340 354 7 26 61 355 67 121 111 246 181 170 208 95 106 114 107 78 42 15 42 76 60 29 7 352 340 336 331 334 336 331 328 324 323 323 320 319 319 323